FW1075 Weather Reports


Display with metric or nautical units.
time (UTC)temp
F
wind
direction
speed
MPH
gust
MPH
rain 1hr
in
rain 24hr
in
rain mn
in
humidity
%
barometer
mb
20260906025145 70 109 0.0 2.0 0.00 0.00 0.00 85 1010.2
20260906024124 71 89 1.0 2.0 0.00 0.00 0.00 83 1010.2
20260906023122 71 294 1.0 2.0 0.00 0.00 0.00 82 1010.1
20260906022122 71 33 2.0 4.0 0.00 0.00 0.00 80 1010.2
20260906021122 71 92 2.0 4.0 0.00 0.00 0.00 79 1010.0
20260906020122 71 54 1.0 3.0 0.00 0.00 0.00 78 1010.0
20260906015143 71 61 2.0 3.0 0.00 0.00 0.00 77 1009.9
20260906014142 72 113 2.0 4.0 0.00 0.00 0.00 76 1009.8
20260906013142 72 43 2.0 4.0 0.00 0.00 0.00 75 1009.8
20260906012127 73 71 2.0 4.0 0.00 0.00 0.00 75 1009.6
20260906011121 73 14 2.0 4.0 0.00 0.00 0.00 75 1009.5
20260906010124 73 344 2.0 5.0 0.00 0.00 0.00 75 1009.5
20260906005122 74 188 1.0 4.0 0.00 0.00 0.00 75 1009.5
20260906004121 74 298 1.0 4.0 0.00 0.00 0.00 75 1009.4
20260906003121 74 6 1.0 4.0 0.00 0.00 0.00 74 1009.2
20260906002121 74 74 2.0 3.0 0.00 0.00 0.00 73 1009.0
20260906001121 74 81 2.0 5.0 0.00 0.00 0.00 73 1009.0
20260906000142 75 93 2.0 4.0 0.00 0.00 0.00 71 1009.0
20260905235121 75 109 3.0 4.0 0.00 0.00 0.00 70 1008.8
20260905234123 76 87 2.0 4.0 0.00 0.00 0.00 69 1008.8
20260905233121 77 111 2.0 4.0 0.00 0.00 0.00 68 1008.7
20260905232124 77 0 3.0 7.0 0.00 0.00 0.00 66 1008.7
20260905231142 77 6 2.0 5.0 0.00 0.00 0.00 64 1008.5
20260905230127 78 357 2.0 5.0 0.00 0.00 0.00 64 1008.5
20260905225125 78 322 3.0 7.0 0.00 0.00 0.00 62 1008.4
20260905224122 79 3 3.0 7.0 0.00 0.00 0.00 61 1008.4
20260905223122 79 283 4.0 7.0 0.00 0.00 0.00 60 1008.4
20260905222143 79 309 4.0 6.0 0.00 0.00 0.00 60 1008.2
20260905221122 79 343 3.0 6.0 0.00 0.00 0.00 59 1008.1
20260905220121 79 354 4.0 9.0 0.00 0.00 0.00 59 1008.1
20260905215121 81 2 3.0 6.0 0.00 0.00 0.00 58 1008.0
20260905214121 82 312 3.0 5.0 0.00 0.00 0.00 56 1008.1
20260905213121 82 284 4.0 6.0 0.00 0.00 0.00 56 1008.0
20260905212121 82 281 3.0 7.0 0.00 0.00 0.00 55 1007.9
20260905211121 83 330 4.0 6.0 0.00 0.00 0.00 55 1008.0
20260905210121 84 314 4.0 7.0 0.00 0.00 0.00 54 1008.0
20260905205142 84 311 3.0 5.0 0.00 0.00 0.00 53 1008.0
20260905204121 84 252 3.0 7.0 0.00 0.00 0.00 54 1007.9
20260905203142 82 295 3.0 5.0 0.00 0.00 0.00 56 1007.8
20260905202121 84 315 3.0 6.0 0.00 0.00 0.00 55 1007.8
20260905201121 84 312 3.0 5.0 0.00 0.00 0.00 54 1007.9
20260905200121 86 321 4.0 6.0 0.00 0.00 0.00 54 1007.9
20260905195121 85 281 4.0 8.0 0.00 0.00 0.00 53 1007.9
20260905194121 85 4 4.0 7.0 0.00 0.00 0.00 53 1008.0
20260905193122 85 297 3.0 7.0 0.00 0.00 0.00 51 1008.0
20260905192142 85 90 3.0 5.0 0.00 0.00 0.00 55 1008.1
20260905191121 86 330 2.0 7.0 0.00 0.00 0.00 53 1008.2
20260905190123 85 297 3.0 5.0 0.00 0.00 0.00 54 1008.2
20260905185122 84 49 3.0 6.0 0.00 0.00 0.00 56 1008.2
20260905184143 82 11 2.0 5.0 0.00 0.00 0.00 57 1008.2
20260905183122 81 62 2.0 4.0 0.00 0.00 0.00 58 1008.4
20260905182123 83 3 3.0 5.0 0.00 0.00 0.00 58 1008.5
20260905181143 82 313 3.0 6.0 0.00 0.00 0.00 59 1008.5
20260905180142 82 341 4.0 8.0 0.00 0.00 0.00 60 1008.5
20260905175144 82 334 2.0 5.0 0.00 0.00 0.00 60 1008.5
20260905174121 81 33 4.0 7.0 0.00 0.00 0.00 62 1008.6
20260905173143 80 322 3.0 6.0 0.00 0.00 0.00 64 1008.7
20260905172142 80 307 3.0 6.0 0.00 0.00 0.00 62 1008.8
20260905171122 80 311 4.0 6.0 0.00 0.00 0.00 62 1008.8
20260905170121 80 305 4.0 8.0 0.00 0.00 0.00 63 1008.8
20260905165122 80 16 3.0 6.0 0.00 0.00 0.00 63 1008.8
20260905164122 80 341 4.0 7.0 0.00 0.00 0.00 64 1008.8
20260905163123 79 311 4.0 8.0 0.00 0.00 0.00 62 1008.8
20260905162121 82 308 4.0 6.0 0.00 0.00 0.00 59 1008.8
20260905161122 81 173 4.0 6.0 0.00 0.00 0.00 59 1008.7
20260905160126 81 36 3.0 8.0 0.00 0.00 0.00 60 1008.7
20260905155121 81 351 4.0 10.0 0.00 0.00 0.00 60 1008.8
20260905154121 83 311 3.0 7.0 0.00 0.00 0.00 60 1008.8
20260905153121 81 85 4.0 7.0 0.00 0.00 0.00 62 1008.9
20260905152129 80 247 3.0 6.0 0.00 0.00 0.00 63 1008.8
20260905152122 80 233 3.0 6.0 0.00 0.00 0.00 62 1008.8
20260905151122 78 24 4.0 8.0 0.00 0.00 0.00 66 1008.8
20260905150123 80 257 3.0 5.0 0.00 0.00 0.00 66 1008.8
20260905145145 80 55 4.0 7.0 0.00 0.00 0.00 66 1008.8
20260905144123 80 81 3.0 6.0 0.00 0.00 0.00 67 1008.7
20260905143122 79 286 3.0 6.0 0.00 0.00 0.00 68 1008.6
20260905142122 79 58 4.0 8.0 0.00 0.00 0.00 67 1008.6
20260905141122 78 90 4.0 7.0 0.00 0.00 0.00 69 1008.6
20260905140121 78 40 4.0 8.0 0.00 0.00 0.00 69 1008.6
20260905135121 77 337 4.0 9.0 0.00 0.00 0.00 70 1008.6
20260905134124 77 333 4.0 7.0 0.00 0.00 0.00 69 1008.6
20260905133124 77 333 4.0 6.0 0.00 0.00 0.00 71 1008.7
20260905132123 77 332 3.0 8.0 0.00 0.00 0.00 70 1008.7
20260905131121 77 292 2.0 5.0 0.00 0.00 0.00 70 1008.8
20260905130123 77 298 3.0 5.0 0.00 0.00 0.00 70 1008.8
20260905125121 77 317 3.0 5.0 0.00 0.00 0.00 71 1009.1
20260905124122 75 310 3.0 7.0 0.00 0.00 0.00 73 1009.1
20260905123122 75 309 4.0 6.0 0.00 0.00 0.00 73 1009.1
20260905122123 75 295 3.0 5.0 0.00 0.00 0.00 74 1009.0
20260905121127 74 5 3.0 6.0 0.00 0.00 0.00 75 1009.1
20260905120122 74 294 3.0 5.0 0.00 0.00 0.00 76 1009.1
20260905115124 73 351 2.0 4.0 0.00 0.00 0.00 77 1009.0
20260905114121 73 360 2.0 4.0 0.00 0.00 0.00 79 1008.8
20260905113122 72 324 2.0 4.0 0.00 0.00 0.00 80 1008.8
20260905112143 71 324 1.0 3.0 0.00 0.01 0.00 82 1008.7
20260905111123 70 302 1.0 3.0 0.00 0.01 0.00 84 1008.4
20260905110124 70 113 0.0 0.0 0.00 0.01 0.00 86 1008.4
20260905105126 69 203 0.0 0.0 0.00 0.01 0.00 88 1008.2
20260905104122 68 343 0.0 2.0 0.00 0.01 0.00 88 1008.0
20260905103123 68 309 1.0 2.0 0.00 0.01 0.00 88 1008.1
20260905102143 68 270 0.0 2.0 0.00 0.01 0.00 86 1008.2
20260905101123 69 320 0.0 2.0 0.00 0.01 0.00 85 1008.1
20260905100143 70 155 0.0 2.0 0.00 0.01 0.00 83 1008.1
20260905095121 70 27 1.0 4.0 0.00 0.01 0.00 82 1008.0
20260905094121 70 358 1.0 3.0 0.00 0.01 0.00 82 1007.9
20260905093121 71 337 1.0 3.0 0.00 0.01 0.00 81 1007.9
20260905092121 71 353 1.0 3.0 0.00 0.01 0.00 81 1007.9
20260905091121 71 321 1.0 2.0 0.00 0.01 0.00 81 1007.8
20260905090121 71 21 1.0 2.0 0.00 0.01 0.00 80 1007.8
20260905085121 72 323 1.0 3.0 0.00 0.01 0.00 80 1007.8
20260905084121 72 349 1.0 4.0 0.00 0.01 0.00 80 1007.9
20260905083122 72 3 1.0 3.0 0.00 0.01 0.00 80 1007.9
20260905082121 72 16 2.0 5.0 0.00 0.01 0.00 80 1007.9
20260905081123 72 1 1.0 4.0 0.00 0.01 0.00 81 1007.9
20260905080121 72 336 2.0 4.0 0.00 0.01 0.00 81 1007.9
20260905075142 72 300 1.0 4.0 0.00 0.01 0.00 81 1007.9
20260905074121 72 321 2.0 4.0 0.00 0.01 0.00 80 1007.9
20260905073123 72 313 2.0 4.0 0.00 0.01 0.00 80 1007.9
20260905072121 72 10 1.0 3.0 0.00 0.01 0.00 81 1007.8
20260905071122 72 353 2.0 4.0 0.00 0.01 0.00 81 1007.8
20260905070122 72 360 1.0 3.0 0.00 0.03 0.00 81 1007.8
20260905065143 72 55 1.0 3.0 0.00 0.03 0.00 81 1007.9
20260905064122 72 357 1.0 3.0 0.00 0.03 0.00 81 1008.0
20260905063123 72 289 1.0 4.0 0.00 0.03 0.00 80 1008.1
20260905062122 73 288 1.0 3.0 0.00 0.03 0.00 80 1008.2
20260905061143 73 319 1.0 3.0 0.00 0.03 0.00 79 1008.4
20260905060121 73 295 1.0 2.0 0.00 0.03 0.00 79 1008.4
20260905055121 73 297 1.0 2.0 0.00 0.03 0.00 79 1008.4
20260905054121 73 330 1.0 3.0 0.00 0.03 0.00 78 1008.5
20260905053123 74 304 1.0 3.0 0.00 0.03 0.00 78 1008.6
20260905052122 74 322 2.0 3.0 0.00 0.03 0.00 78 1008.7
20260905051122 74 323 2.0 4.0 0.00 0.03 0.00 77 1008.7
20260905050121 74 302 2.0 4.0 0.00 0.03 0.00 76 1008.7
20260905045122 75 323 2.0 4.0 0.00 0.03 0.00 76 1008.8
20260905044121 75 320 3.0 5.0 0.00 0.03 0.00 75 1008.7
20260905043121 75 299 2.0 5.0 0.00 0.03 0.00 75 1008.8
20260905042142 75 290 2.0 4.0 0.00 0.03 0.00 75 1008.8
20260905041143 75 303 3.0 4.0 0.00 0.03 0.00 75 1008.8
20260905040122 75 330 2.0 5.0 0.00 0.03 0.00 75 1008.8
20260905035121 76 329 2.0 5.0 0.00 0.03 0.03 75 1008.9
20260905034121 76 325 2.0 5.0 0.00 0.03 0.03 74 1008.8
20260905033145 76 302 2.0 4.0 0.00 0.03 0.03 73 1008.8
20260905032125 76 337 3.0 6.0 0.00 0.03 0.03 73 1008.8
20260905031121 76 318 3.0 5.0 0.00 0.03 0.03 72 1008.8
20260905030121 76 308 2.0 6.0 0.00 0.03 0.03 72 1008.8